Location: Longueuil
(45.5369°N, 73.5107°W)
Time: 21:12:54
(UTC-05:00)

ISS - Visible Passes

Search period start: 14 December 2025 00:00
Search period end: 24 December 2025 00:00
Orbit: 416 x 420 km, 51.6° (Epoch: 14 December)

Date Brightness Start Highest point End Pass type
(mag) Time Alt. Az. Time Alt. Az. Time Alt. Az.
14 Dec -0.6 05:03:50 10° SSE 05:05:25 13° SE 05:07:01 10° ESE visible
14 Dec -3.6 06:38:20 10° SW 06:41:43 80° SSE 06:45:06 10° ENE visible
15 Dec -2.9 05:50:49 12° SW 05:53:45 50° SE 05:57:02 10° ENE visible
16 Dec -2.1 05:05:39 31° SSE 05:05:48 31° SE 05:08:51 10° ENE visible
16 Dec -3.5 06:39:11 10° W 06:42:29 50° NNW 06:45:48 10° NE visible
17 Dec -0.2 04:20:10 11° E 04:20:10 11° E 04:20:26 10° E visible
17 Dec -3.8 05:53:08 35° WSW 05:54:23 71° NNW 05:57:45 10° ENE visible
18 Dec -2.4 05:07:25 39° ENE 05:07:25 39° ENE 05:09:41 10° ENE visible
18 Dec -2.8 06:40:22 11° WNW 06:43:18 32° NNW 06:46:25 10° NE visible
19 Dec -3.1 05:54:29 35° NW 05:55:05 39° NNW 05:58:18 10° NE visible
20 Dec -1.9 05:08:28 26° NE 05:08:28 26° NE 05:10:11 10° NE visible
20 Dec -2.5 06:41:24 11° WNW 06:44:07 28° N 06:47:05 10° ENE visible
21 Dec -2.6 05:55:18 28° NNW 05:55:49 29° N 05:58:50 10° NE visible
22 Dec -1.6 05:09:06 21° NE 05:09:06 21° NE 05:10:36 10° NE visible
22 Dec -2.5 06:42:02 11° NW 06:44:51 30° N 06:47:52 10° ENE visible
23 Dec -2.5 05:55:47 25° NNW 05:56:30 28° N 05:59:28 10° ENE visible
